| time (UTC) | temp C | wind direction | speed KPH | gust KPH | rain 1hr cm | rain 24hr cm | rain mn cm | humidity % | barometer mb |
| 20260502200006 | 12 | 265 | 0.0 | 0.0 | 0.00 | 0.00 | 0.00 | 55 | 1016.5 |
| 20260502194603 | 13 | 263 | 0.0 | 1.6 | 0.00 | 0.00 | 0.00 | 50 | 1016.3 |
| 20260502193134 | 13 | 218 | 0.0 | 0.0 | 0.00 | 0.00 | 0.00 | 49 | 1016.1 |
| 20260502191538 | 16 | 302 | 0.0 | 11.3 | 0.00 | 0.00 | 0.00 | 42 | 1016.0 |
| 20260502190120 | 16 | 165 | 0.0 | 11.3 | 0.00 | 0.00 | 0.00 | 38 | 1015.7 |
| 20260502184536 | 17 | 133 | 0.0 | 6.4 | 0.00 | 0.00 | 0.00 | 37 | 1015.4 |
| 20260502183128 | 18 | 283 | 6.4 | 19.3 | 0.00 | 0.00 | 0.00 | 30 | 1015.1 |
| 20260502181536 | 19 | 193 | 8.0 | 17.7 | 0.00 | 0.00 | 0.00 | 29 | 1015.1 |
| 20260502180115 | 19 | 195 | 11.3 | 17.7 | 0.00 | 0.00 | 0.00 | 28 | 1015.0 |
| 20260502170108 | 21 | 194 | 8.0 | 17.7 | 0.00 | 0.00 | 0.00 | 23 | 1014.7 |
| 20260502163115 | 23 | 172 | 1.6 | 17.7 | 0.00 | 0.00 | 0.00 | 24 | 1014.8 |
| 20260502161524 | 23 | 130 | 8.0 | 17.7 | 0.00 | 0.00 | 0.00 | 24 | 1014.9 |
| 20260502160113 | 23 | 205 | 6.4 | 16.1 | 0.00 | 0.00 | 0.00 | 19 | 1014.9 |
| 20260502151508 | 25 | 234 | 0.0 | 1.6 | 0.00 | 0.00 | 0.00 | 27 | 1015.3 |
| 20260502150118 | 25 | 213 | 0.0 | 1.6 | 0.00 | 0.00 | 0.00 | 29 | 1015.5 |
| 20260502130110 | 25 | 148 | 0.0 | 3.2 | 0.00 | 0.00 | 0.00 | 20 | 1017.3 |
| 20260502123011 | 25 | 30 | 0.0 | 4.8 | 0.00 | 0.00 | 0.00 | 22 | 1017.7 |
| 20260502121543 | 25 | 336 | 0.0 | 4.8 | 0.00 | 0.00 | 0.00 | 22 | 1017.9 |
| 20260502120117 | 24 | 89 | 0.0 | 3.2 | 0.00 | 0.00 | 0.00 | 18 | 1018.2 |
| 20260502114508 | 23 | 254 | 0.0 | 3.2 | 0.00 | 0.00 | 0.00 | 26 | 1018.4 |
| 20260502111623 | 22 | 82 | 0.0 | 4.8 | 0.00 | 0.00 | 0.00 | 31 | 1018.9 |
| 20260502110028 | 22 | 85 | 0.0 | 4.8 | 0.00 | 0.00 | 0.00 | 32 | 1019.3 |
| 20260502104607 | 21 | 88 | 0.0 | 4.8 | 0.00 | 0.00 | 0.00 | 33 | 1019.5 |
| 20260502103016 | 20 | 75 | 0.0 | 4.8 | 0.00 | 0.00 | 0.00 | 36 | 1019.9 |
| 20260502101607 | 20 | 348 | 0.0 | 3.2 | 0.00 | 0.00 | 0.00 | 42 | 1020.1 |
| 20260502090118 | 16 | 200 | 0.0 | 1.6 | 0.00 | 0.00 | 0.00 | 47 | 1021.5 |
| 20260502071506 | 10 | 28 | 0.0 | 1.6 | 0.00 | 0.00 | 0.00 | 65 | 1023.2 |
| 20260502070101 | 8 | 280 | 0.0 | 0.0 | 0.00 | 0.00 | 0.00 | 69 | 1023.5 |
| 20260502064511 | 7 | 282 | 0.0 | 1.6 | 0.00 | 0.00 | 0.00 | 76 | 1023.7 |
| 20260502063107 | 6 | 221 | 0.0 | 0.0 | 0.00 | 0.00 | 0.00 | 81 | 1023.8 |
| 20260502061509 | 5 | 215 | 0.0 | 0.0 | 0.00 | 0.00 | 0.00 | 87 | 1024.1 |
| 20260502060109 | 3 | 215 | 0.0 | 0.0 | 0.00 | 0.00 | 0.00 | 91 | 1024.1 |
| 20260502054515 | 2 | 215 | 0.0 | 0.0 | 0.00 | 0.00 | 0.00 | 92 | 1024.2 |
| 20260502053128 | 2 | 215 | 0.0 | 0.0 | 0.00 | 0.00 | 0.00 | 92 | 1024.3 |
| 20260502051522 | 1 | 215 | 0.0 | 0.0 | 0.00 | 0.00 | 0.00 | 92 | 1024.3 |
| 20260502050107 | 1 | 215 | 0.0 | 0.0 | 0.00 | 0.00 | 0.00 | 92 | 1024.3 |
| 20260502044521 | 1 | 215 | 0.0 | 0.0 | 0.00 | 0.00 | 0.00 | 94 | 1024.3 |
| 20260502043118 | 0 | 215 | 0.0 | 0.0 | 0.00 | 0.00 | 0.00 | 94 | 1024.3 |
| 20260502041537 | 0 | 215 | 0.0 | 0.0 | 0.00 | 0.00 | 0.00 | 93 | 1024.5 |
| 20260502040131 | 1 | 215 | 0.0 | 0.0 | 0.00 | 0.00 | 0.00 | 93 | 1024.4 |
| 20260502034559 | 0 | 215 | 0.0 | 0.0 | 0.00 | 0.00 | 0.00 | 93 | 1024.3 |
| 20260502033017 | 1 | 215 | 0.0 | 0.0 | 0.00 | 0.00 | 0.00 | 93 | 1024.3 |
| 20260502031611 | 1 | 215 | 0.0 | 0.0 | 0.00 | 0.00 | 0.00 | 92 | 1024.3 |
| 20260502030029 | 1 | 215 | 0.0 | 0.0 | 0.00 | 0.00 | 0.00 | 91 | 1024.5 |
| 20260502024620 | 1 | 215 | 0.0 | 0.0 | 0.00 | 0.00 | 0.00 | 92 | 1024.5 |
| 20260502023043 | 1 | 215 | 0.0 | 0.0 | 0.00 | 0.00 | 0.00 | 92 | 1024.7 |
| 20260502021630 | 1 | 215 | 0.0 | 0.0 | 0.00 | 0.00 | 0.00 | 92 | 1024.7 |
| 20260502020043 | 1 | 215 | 0.0 | 0.0 | 0.00 | 0.00 | 0.00 | 92 | 1024.6 |
| 20260502014534 | 1 | 215 | 0.0 | 0.0 | 0.00 | 0.00 | 0.00 | 89 | 1024.6 |
| 20260502013129 | 2 | 215 | 0.0 | 0.0 | 0.00 | 0.00 | 0.00 | 91 | 1024.6 |
| 20260502011539 | 2 | 215 | 0.0 | 0.0 | 0.00 | 0.00 | 0.00 | 90 | 1024.6 |
| 20260502010130 | 2 | 215 | 0.0 | 0.0 | 0.00 | 0.00 | 0.00 | 88 | 1024.6 |
| 20260502004543 | 2 | 215 | 0.0 | 0.0 | 0.00 | 0.00 | 0.00 | 88 | 1024.6 |
| 20260502003006 | 2 | 215 | 0.0 | 0.0 | 0.00 | 0.00 | 0.00 | 88 | 1024.7 |
| 20260502001601 | 2 | 215 | 0.0 | 0.0 | 0.00 | 0.00 | 0.00 | 87 | 1024.7 |
| 20260502000011 | 3 | 232 | 0.0 | 0.0 | 0.00 | 0.00 | 0.00 | 86 | 1024.6 |
| 20260501234556 | 3 | 232 | 0.0 | 0.0 | 0.00 | 0.00 | 0.00 | 85 | 1024.7 |
| 20260501233022 | 3 | 232 | 0.0 | 0.0 | 0.00 | 0.00 | 0.00 | 84 | 1024.7 |
| 20260501231616 | 4 | 232 | 0.0 | 0.0 | 0.00 | 0.00 | 0.00 | 82 | 1024.8 |
| 20260501230028 | 5 | 225 | 0.0 | 0.0 | 0.00 | 0.00 | 0.00 | 80 | 1024.7 |
| 20260501224618 | 5 | 225 | 0.0 | 0.0 | 0.00 | 0.00 | 0.00 | 80 | 1024.7 |
| 20260501223037 | 5 | 225 | 0.0 | 0.0 | 0.00 | 0.00 | 0.00 | 79 | 1024.7 |
| 20260501221619 | 5 | 225 | 0.0 | 0.0 | 0.00 | 0.00 | 0.00 | 77 | 1024.7 |
| 20260501220031 | 6 | 281 | 0.0 | 0.0 | 0.00 | 0.00 | 0.00 | 76 | 1024.6 |
| 20260501214530 | 6 | 281 | 0.0 | 0.0 | 0.00 | 0.00 | 0.00 | 76 | 1024.5 |
| 20260501213115 | 6 | 281 | 0.0 | 0.0 | 0.00 | 0.00 | 0.00 | 74 | 1024.5 |
| 20260501211549 | 7 | 281 | 0.0 | 0.0 | 0.00 | 0.00 | 0.00 | 72 | 1024.5 |
| 20260501210127 | 7 | 280 | 0.0 | 0.0 | 0.00 | 0.00 | 0.00 | 71 | 1024.3 |
| 20260501204541 | 8 | 161 | 0.0 | 0.0 | 0.00 | 0.00 | 0.00 | 64 | 1024.1 |
| 20260501203126 | 8 | 161 | 0.0 | 0.0 | 0.00 | 0.00 | 0.00 | 64 | 1024.0 |
| 20260501201530 | 9 | 161 | 0.0 | 0.0 | 0.00 | 0.00 | 0.00 | 63 | 1023.8 |
| 20260501200119 | 10 | 158 | 0.0 | 0.0 | 0.00 | 0.00 | 0.00 | 59 | 1023.7 |